| time (UTC) | temp C | wind direction | speed KPH | gust KPH | rain 1hr cm | rain 24hr cm | rain mn cm | humidity % | barometer mb |
| 20260505041551 | 11 | 308 | 1.6 | 4.8 | 0.00 | 0.00 | 0.00 | 89 | 1012.5 |
| 20260505040531 | 11 | 330 | 3.2 | 4.8 | 0.00 | 0.00 | 0.00 | 89 | 1012.5 |
| 20260505035518 | 11 | 320 | 3.2 | 9.7 | 0.00 | 0.00 | 0.00 | 89 | 1012.4 |
| 20260505034559 | 11 | 331 | 3.2 | 9.7 | 0.00 | 0.00 | 0.00 | 89 | 1012.5 |
| 20260505033546 | 11 | 273 | 0.0 | 4.8 | 0.00 | 0.00 | 0.00 | 89 | 1012.6 |
| 20260505032533 | 11 | 310 | 1.6 | 6.4 | 0.00 | 0.00 | 0.00 | 89 | 1012.7 |
| 20260505031615 | 11 | 311 | 3.2 | 9.7 | 0.00 | 0.00 | 0.00 | 89 | 1012.6 |
| 20260505030602 | 11 | 349 | 6.4 | 12.9 | 0.00 | 0.00 | 0.00 | 89 | 1012.7 |
| 20260505025559 | 12 | 344 | 4.8 | 12.9 | 0.00 | 0.00 | 0.00 | 89 | 1012.7 |
| 20260505024546 | 12 | 341 | 3.2 | 14.5 | 0.00 | 0.00 | 0.00 | 89 | 1012.7 |
| 20260505023615 | 12 | 330 | 4.8 | 14.5 | 0.00 | 0.00 | 0.00 | 89 | 1012.6 |
| 20260505022558 | 12 | 345 | 3.2 | 9.7 | 0.00 | 0.00 | 0.00 | 89 | 1012.7 |
| 20260505021533 | 12 | 338 | 4.8 | 12.9 | 0.00 | 0.00 | 0.00 | 89 | 1012.6 |
| 20260505020517 | 12 | 340 | 3.2 | 9.7 | 0.00 | 0.00 | 0.00 | 89 | 1012.6 |
| 20260505015603 | 12 | 1 | 8.0 | 14.5 | 0.00 | 0.00 | 0.00 | 89 | 1012.6 |
| 20260505014545 | 12 | 359 | 4.8 | 16.1 | 0.00 | 0.00 | 0.00 | 89 | 1012.6 |
| 20260505013523 | 12 | 284 | 1.6 | 9.7 | 0.00 | 0.00 | 0.00 | 89 | 1012.7 |
| 20260505012609 | 12 | 3 | 4.8 | 14.5 | 0.00 | 0.00 | 0.00 | 90 | 1012.9 |
| 20260505011549 | 12 | 325 | 4.8 | 12.9 | 0.00 | 0.00 | 0.00 | 90 | 1012.9 |
| 20260505010535 | 12 | 329 | 6.4 | 11.3 | 0.00 | 0.00 | 0.00 | 90 | 1012.9 |
| 20260505005525 | 12 | 324 | 4.8 | 17.7 | 0.00 | 0.00 | 0.00 | 90 | 1012.9 |
| 20260505004601 | 12 | 320 | 4.8 | 12.9 | 0.00 | 0.00 | 0.00 | 90 | 1012.9 |
| 20260505003609 | 12 | 345 | 6.4 | 20.9 | 0.00 | 0.00 | 0.00 | 90 | 1013.1 |
| 20260505002551 | 12 | 323 | 4.8 | 16.1 | 0.00 | 0.00 | 0.00 | 91 | 1013.1 |
| 20260505001616 | 12 | 347 | 6.4 | 14.5 | 0.00 | 0.00 | 0.00 | 91 | 1013.1 |
| 20260505000557 | 12 | 331 | 4.8 | 11.3 | 0.00 | 0.00 | 0.00 | 91 | 1013.2 |
| 20260504235541 | 12 | 334 | 6.4 | 12.9 | 0.00 | 0.00 | 0.00 | 91 | 1013.4 |
| 20260504234528 | 12 | 338 | 6.4 | 14.5 | 0.00 | 0.00 | 0.00 | 91 | 1013.4 |
| 20260504233612 | 12 | 338 | 8.0 | 12.9 | 0.00 | 0.00 | 0.00 | 91 | 1013.4 |
| 20260504232553 | 12 | 330 | 6.4 | 16.1 | 0.00 | 0.00 | 0.00 | 91 | 1013.5 |
| 20260504231540 | 12 | 339 | 8.0 | 16.1 | 0.00 | 0.03 | 0.00 | 91 | 1013.5 |
| 20260504230522 | 12 | 342 | 9.7 | 14.5 | 0.00 | 0.03 | 0.00 | 91 | 1013.5 |
| 20260504225601 | 12 | 349 | 8.0 | 16.1 | 0.00 | 0.03 | 0.00 | 91 | 1013.6 |
| 20260504224546 | 12 | 339 | 6.4 | 16.1 | 0.00 | 0.03 | 0.00 | 92 | 1013.7 |
| 20260504223528 | 12 | 339 | 9.7 | 17.7 | 0.00 | 0.03 | 0.00 | 92 | 1013.8 |
| 20260504222606 | 12 | 341 | 9.7 | 12.9 | 0.00 | 0.03 | 0.00 | 92 | 1013.8 |
| 20260504221551 | 12 | 333 | 8.0 | 12.9 | 0.00 | 0.03 | 0.00 | 92 | 1013.9 |
| 20260504220554 | 12 | 344 | 6.4 | 12.9 | 0.00 | 0.03 | 0.00 | 92 | 1014.0 |
| 20260504215517 | 12 | 328 | 9.7 | 12.9 | 0.00 | 0.03 | 0.03 | 92 | 1014.0 |
| 20260504214606 | 12 | 333 | 9.7 | 14.5 | 0.00 | 0.03 | 0.03 | 92 | 1014.0 |
| 20260504213549 | 12 | 334 | 8.0 | 11.3 | 0.00 | 0.03 | 0.03 | 92 | 1014.2 |
| 20260504212552 | 12 | 337 | 6.4 | 9.7 | 0.00 | 0.03 | 0.03 | 92 | 1014.2 |
| 20260504211517 | 12 | 338 | 8.0 | 12.9 | 0.00 | 0.03 | 0.03 | 92 | 1014.3 |
| 20260504210617 | 12 | 336 | 6.4 | 12.9 | 0.00 | 0.03 | 0.03 | 92 | 1014.2 |
| 20260504205532 | 12 | 334 | 8.0 | 11.3 | 0.00 | 0.03 | 0.03 | 92 | 1014.3 |
| 20260504204519 | 12 | 329 | 6.4 | 9.7 | 0.00 | 0.03 | 0.03 | 92 | 1014.3 |
| 20260504203605 | 12 | 324 | 4.8 | 9.7 | 0.00 | 0.03 | 0.03 | 92 | 1014.2 |
| 20260504202548 | 12 | 320 | 4.8 | 9.7 | 0.00 | 0.03 | 0.03 | 92 | 1014.1 |
| 20260504201535 | 12 | 331 | 6.4 | 9.7 | 0.00 | 0.03 | 0.03 | 92 | 1014.0 |
| 20260504200635 | 12 | 323 | 6.4 | 9.7 | 0.00 | 0.03 | 0.03 | 91 | 1014.1 |
| 20260504195548 | 13 | 308 | 3.2 | 6.4 | 0.00 | 0.03 | 0.03 | 91 | 1014.1 |
| 20260504194532 | 13 | 328 | 4.8 | 9.7 | 0.00 | 0.03 | 0.03 | 91 | 1014.0 |
| 20260504193519 | 13 | 323 | 4.8 | 6.4 | 0.00 | 0.03 | 0.03 | 90 | 1013.9 |
| 20260504192617 | 13 | 337 | 6.4 | 12.9 | 0.00 | 0.03 | 0.03 | 90 | 1013.7 |
| 20260504191533 | 13 | 330 | 4.8 | 12.9 | 0.00 | 0.03 | 0.03 | 90 | 1013.7 |
| 20260504190612 | 13 | 342 | 6.4 | 11.3 | 0.00 | 0.03 | 0.03 | 90 | 1013.8 |
| 20260504185555 | 13 | 340 | 8.0 | 12.9 | 0.00 | 0.03 | 0.03 | 90 | 1013.6 |
| 20260504184545 | 13 | 337 | 4.8 | 9.7 | 0.00 | 0.03 | 0.03 | 89 | 1013.6 |
| 20260504183545 | 13 | 357 | 9.7 | 16.1 | 0.00 | 0.03 | 0.03 | 89 | 1013.7 |
| 20260504182604 | 13 | 336 | 9.7 | 17.7 | 0.00 | 0.03 | 0.03 | 89 | 1013.5 |
| 20260504181551 | 13 | 336 | 4.8 | 11.3 | 0.00 | 0.03 | 0.03 | 88 | 1013.7 |
| 20260504180539 | 14 | 324 | 8.0 | 16.1 | 0.00 | 0.03 | 0.03 | 87 | 1013.7 |
| 20260504175525 | 15 | 342 | 4.8 | 14.5 | 0.00 | 0.03 | 0.03 | 86 | 1013.5 |
| 20260504174610 | 15 | 342 | 9.7 | 17.7 | 0.00 | 0.03 | 0.03 | 85 | 1013.5 |
| 20260504173557 | 15 | 351 | 8.0 | 20.9 | 0.00 | 0.03 | 0.03 | 85 | 1013.3 |
| 20260504172527 | 16 | 332 | 6.4 | 14.5 | 0.00 | 0.03 | 0.03 | 86 | 1013.3 |
| 20260504171633 | 16 | 335 | 14.5 | 17.7 | 0.00 | 0.03 | 0.03 | 85 | 1013.2 |
| 20260504170559 | 16 | 344 | 12.9 | 25.7 | 0.00 | 0.03 | 0.03 | 83 | 1013.2 |
| 20260504150537 | 17 | 317 | 6.4 | 11.3 | 0.00 | 0.61 | 0.03 | 79 | 1013.3 |
| 20260504140546 | 17 | 307 | 8.0 | 12.9 | 0.00 | 0.61 | 0.03 | 80 | 1014.0 |
| 20260504130550 | 18 | 114 | 1.6 | 3.2 | 0.00 | 0.61 | 0.03 | 72 | 1014.2 |
| 20260504110524 | 18 | 218 | 1.6 | 4.8 | 0.00 | 0.61 | 0.03 | 71 | 1014.5 |
| 20260504100527 | 18 | 47 | 1.6 | 3.2 | 0.00 | 0.61 | 0.03 | 72 | 1014.7 |
| 20260504081612 | 15 | 290 | 1.6 | 3.2 | 0.00 | 0.71 | 0.03 | 84 | 1014.5 |
| 20260504080554 | 15 | 282 | 1.6 | 3.2 | 0.00 | 0.79 | 0.03 | 85 | 1014.5 |
| 20260504050552 | 13 | 228 | 1.6 | 3.2 | 0.00 | 1.02 | 0.03 | 97 | 1013.2 |